M I D A S
Marine Information and Data Acquisition System
Tripno 2261 of the Zeeleeuw from 2012-02-08 07:52:53 to 2012-02-08 13:34:05
Back to CruiseResearch ActivitiesStationsMapUnderway DataData graphs

EquipmentUnitsComments
TimeDGPSUTC
LatitudeDGPSDM.mWGS84
LongitudeDGPSDM.mWGS84
SpeedMeteo Stationm/sRelative wind speed
DirectionMeteo StationdegRelative wind direction
TemperatureMeteo Stationdeg CelciusAir temperature
PressureMeteo StationPaAtmospheric pressure
HumidityMeteo Station%Relative humidity
Missing or incorrect values are displayed as -999
Metereological data collected by the RV Zeeleeuw from 2012-02-08 07:32:44 to 2012-02-08 13:44:23
                                                                                    Next 1000 lines
Time Latitude Longitude Speed Direction Temperature Pressure Humidity
2012-02-08 07:32:55 51°13.637 2°56.018 5.4 19 -3 103910 36
2012-02-08 07:32:59 51°13.637 2°56.018 4.2 286 -3 103910 36
2012-02-08 07:33:04 51°13.637 2°56.018 4.4 247 -3 103910 34
2012-02-08 07:33:10 51°13.637 2°56.019 5.5 284 -3 103910 34
2012-02-08 07:33:14 51°13.637 2°56.019 3.8 25 -3 103920 33
2012-02-08 07:33:20 51°13.637 2°56.019 2.8 306 -3 103920 33
2012-02-08 07:33:24 51°13.637 2°56.019 3.4 247 -3 103920 34
2012-02-08 07:33:29 51°13.637 2°56.019 7 284 -3 103920 34
2012-02-08 07:33:34 51°13.637 2°56.019 2.9 18 -3 103920 36
2012-02-08 07:33:39 51°13.637 2°56.019 3.8 286 -3 103920 36
2012-02-08 07:33:44 51°13.637 2°56.019 5 22 -3 103910 35
2012-02-08 07:33:49 51°13.637 2°56.019 4.6 282 -3 103910 35
2012-02-08 07:33:54 51°13.636 2°56.018 4.7 26 -3 103920 35
2012-02-08 07:34:00 51°13.636 2°56.018 5.1 283 -3 103920 35
2012-02-08 07:34:05 51°13.636 2°56.018 4.6 251 -3 103910 35
2012-02-08 07:34:09 51°13.636 2°56.019 4.1 287 -3 103910 35
2012-02-08 07:34:14 51°13.636 2°56.019 3.6 18 -3 103920 36
2012-02-08 07:34:19 51°13.636 2°56.018 3.5 282 -3 103920 36
2012-02-08 07:34:24 51°13.636 2°56.018 2.6 24 -3 103920 35
2012-02-08 07:34:30 51°13.635 2°56.019 2.6 309 -3 103920 35
2012-02-08 07:34:34 51°13.635 2°56.018 4.6 18 -3 103910 35
2012-02-08 07:34:40 51°13.635 2°56.019 3.2 285 -3 103910 35
2012-02-08 07:34:45 51°13.635 2°56.019 4.6 255 -3 103920 35
2012-02-08 07:34:49 51°13.635 2°56.019 4.5 287 -3 103920 35
2012-02-08 07:34:54 51°13.635 2°56.018 4.3 19 -3 103920 36
2012-02-08 07:34:59 51°13.636 2°56.018 3.9 282 -3 103920 36
2012-02-08 07:35:04 51°13.636 2°56.018 2.4 22 -3 103920 35
2012-02-08 07:35:09 51°13.636 2°56.017 5.3 285 -3 103920 35
2012-02-08 07:35:14 51°13.636 2°56.018 5.2 251 -3 103920 34
2012-02-08 07:35:19 51°13.636 2°56.018 6.9 287 -3 103920 34
2012-02-08 07:35:24 51°13.635 2°56.019 5.1 20 -3 103910 35
2012-02-08 07:35:30 51°13.635 2°56.018 3 282 -3 103910 35
2012-02-08 07:35:35 51°13.636 2°56.018 5 251 -3 103920 36
2012-02-08 07:35:39 51°13.636 2°56.018 3.6 307 -3 103920 36
2012-02-08 07:35:45 51°13.636 2°56.018 4.3 20 -3 103920 36
2012-02-08 07:35:50 51°13.636 2°56.018 2.8 282 -3 103920 36
2012-02-08 07:35:54 51°13.636 2°56.018 3.2 254 -3 103920 33
2012-02-08 07:35:59 51°13.636 2°56.018 5.8 288 -3 103920 33
2012-02-08 07:36:04 51°13.636 2°56.018 5.4 23 -3 103910 35
2012-02-08 07:36:10 51°13.636 2°56.018 5.9 283 -3 103910 35
2012-02-08 07:36:14 51°13.635 2°56.018 3.8 23 -3 103910 34
2012-02-08 07:36:19 51°13.636 2°56.019 4.8 283 -3 103910 34
2012-02-08 07:36:24 51°13.636 2°56.018 4.7 21 -3 103920 34
2012-02-08 07:36:29 51°13.636 2°56.018 5.9 281 -3 103920 34
2012-02-08 07:36:34 51°13.636 2°56.018 4.2 250 -2.9 103920 35
2012-02-08 07:36:39 51°13.636 2°56.018 6.7 288 -2.9 103920 35
2012-02-08 07:36:44 51°13.636 2°56.018 6.7 21 -3 103920 35
2012-02-08 07:36:50 51°13.636 2°56.018 5.2 282 -3 103920 35
2012-02-08 07:36:55 51°13.636 2°56.018 6.3 21 -3 103920 34
2012-02-08 07:36:59 51°13.636 2°56.018 5.7 283 -3 103920 34
2012-02-08 07:37:04 51°13.636 2°56.018 7.3 19 -2.9 103920 34
2012-02-08 07:37:09 51°13.636 2°56.018 7.2 287 -2.9 103920 34
2012-02-08 07:37:14 51°13.636 2°56.019 5.5 22 -3 103920 35
2012-02-08 07:37:19 51°13.636 2°56.019 7.4 284 -3 103920 35
2012-02-08 07:37:24 51°13.636 2°56.018 4.2 18 -3 103920 35
2012-02-08 07:37:29 51°13.636 2°56.019 5.4 280 -3 103920 35
2012-02-08 07:37:34 51°13.636 2°56.019 4.7 20 -3 103920 35
2012-02-08 07:37:40 51°13.636 2°56.018 5.1 309 -3 103920 35
2012-02-08 07:37:45 51°13.637 2°56.017 4.6 22 -3 103910 35
2012-02-08 07:37:49 51°13.637 2°56.018 3.4 286 -3 103910 35
2012-02-08 07:37:54 51°13.636 2°56.018 5.6 20 -3 103910 36
2012-02-08 07:38:00 51°13.636 2°56.019 6.6 286 -3 103910 36
2012-02-08 07:38:04 51°13.636 2°56.019 5.7 252 -3 103910 36
2012-02-08 07:38:09 51°13.636 2°56.019 5.6 281 -3 103910 36
2012-02-08 07:38:13 51°13.636 2°56.019 4.7 19 -3 103920 34
2012-02-08 07:38:19 51°13.635 2°56.019 3.6 288 -3 103920 34
2012-02-08 07:38:25 51°13.635 2°56.019 3.3 245 -3 103920 36
2012-02-08 07:38:29 51°13.636 2°56.018 4.6 306 -3 103920 36
2012-02-08 07:38:34 51°13.636 2°56.018 5.9 262 -3 103910 35
2012-02-08 07:38:39 51°13.636 2°56.018 3.8 287 -3 103910 35
2012-02-08 07:38:44 51°13.636 2°56.019 4.5 27 -2.9 103920 34
2012-02-08 07:38:49 51°13.635 2°56.019 4.5 309 -2.9 103920 34
2012-02-08 07:38:55 51°13.635 2°56.019 4.3 24 -3 103920 34
2012-02-08 07:38:59 51°13.635 2°56.019 3.4 282 -3 103920 34
2012-02-08 07:39:04 51°13.636 2°56.019 4.9 17 -2.9 103910 36
2012-02-08 07:39:10 51°13.636 2°56.019 5.5 305 -2.9 103910 36
2012-02-08 07:39:14 51°13.636 2°56.019 4.8 25 -2.9 103920 36
2012-02-08 07:39:19 51°13.636 2°56.019 2.8 306 -2.9 103920 36
2012-02-08 07:39:24 51°13.636 2°56.019 3.2 19 -3 103910 34
2012-02-08 07:39:29 51°13.636 2°56.019 2.4 286 -3 103910 34
2012-02-08 07:39:34 51°13.636 2°56.019 2.9 18 -3 103910 35
2012-02-08 07:39:39 51°13.636 2°56.019 1.4 288 -3 103910 35
2012-02-08 07:39:44 51°13.636 2°56.019 4.9 253 -3 103910 36
2012-02-08 07:39:48 51°13.636 2°56.019 4.6 286 -3 103910 36
2012-02-08 07:39:54 51°13.636 2°56.019 3.2 249 -2.9 103920 35
2012-02-08 07:39:59 51°13.636 2°56.018 3.6 283 -2.9 103920 35
2012-02-08 07:40:03 51°13.637 2°56.018 3.5 18 -2.9 103910 36
2012-02-08 07:40:08 51°13.637 2°56.018 4 286 -2.9 103910 36
2012-02-08 07:40:13 51°13.637 2°56.018 3.8 18 -2.9 103910 36
2012-02-08 07:40:20 51°13.636 2°56.018 3.1 289 -2.9 103910 36
2012-02-08 07:40:24 51°13.636 2°56.019 2.8 19 -3 103910 36
2012-02-08 07:40:29 51°13.636 2°56.019 3.4 287 -3 103910 36
2012-02-08 07:40:34 51°13.636 2°56.019 3.6 21 -2.9 103920 36
2012-02-08 07:40:38 51°13.636 2°56.019 4.6 287 -2.9 103920 36
2012-02-08 07:40:44 51°13.636 2°56.018 5.4 20 -2.9 103910 34
2012-02-08 07:40:48 51°13.636 2°56.018 5.4 286 -2.9 103910 34
2012-02-08 07:40:53 51°13.636 2°56.018 6.5 257 -2.9 103910 34
2012-02-08 07:40:58 51°13.635 2°56.019 7.2 281 -2.9 103910 34
2012-02-08 07:41:04 51°13.636 2°56.019 6.4 255 -2.9 103910 36
2012-02-08 07:41:10 51°13.636 2°56.019 5.8 311 -2.9 103910 36
2012-02-08 07:41:14 51°13.636 2°56.019 5.1 20 -3 103910 34
2012-02-08 07:41:20 51°13.636 2°56.019 6.9 284 -3 103910 34
2012-02-08 07:41:24 51°13.636 2°56.019 6 17 -2.9 103920 35
2012-02-08 07:41:28 51°13.636 2°56.019 6.6 309 -2.9 103920 35
2012-02-08 07:41:33 51°13.636 2°56.019 5 18 -2.9 103920 35
2012-02-08 07:41:38 51°13.636 2°56.018 4.4 289 -2.9 103920 35
2012-02-08 07:41:44 51°13.636 2°56.019 4 256 -2.9 103910 34
2012-02-08 07:41:49 51°13.636 2°56.019 3.7 287 -2.9 103910 34
2012-02-08 07:41:54 51°13.636 2°56.019 4.1 21 -2.9 103930 35
2012-02-08 07:41:59 51°13.636 2°56.019 5.3 288 -2.9 103930 35
2012-02-08 07:42:04 51°13.636 2°56.019 4.5 17 -2.9 103920 34
2012-02-08 07:42:09 51°13.636 2°56.019 5.7 283 -2.9 103920 34
2012-02-08 07:42:14 51°13.636 2°56.019 6.2 251 -2.9 103920 36
2012-02-08 07:42:20 51°13.636 2°56.019 7 283 -2.9 103920 36
2012-02-08 07:42:25 51°13.636 2°56.019 5.3 19 -2.9 103920 35
2012-02-08 07:42:30 51°13.636 2°56.019 5.2 282 -2.9 103920 35
2012-02-08 07:42:35 51°13.636 2°56.019 4.7 23 -2.9 103920 36
2012-02-08 07:42:39 51°13.637 2°56.019 6.3 281 -2.9 103920 36
2012-02-08 07:42:44 51°13.637 2°56.019 5.7 18 -2.9 103910 36
2012-02-08 07:42:49 51°13.637 2°56.018 5.4 286 -2.9 103910 36
2012-02-08 07:42:54 51°13.636 2°56.019 5.1 253 -2.9 103910 34
2012-02-08 07:42:59 51°13.636 2°56.019 4.2 288 -2.9 103910 34
2012-02-08 07:43:05 51°13.636 2°56.019 6.1 18 -2.9 103910 35
2012-02-08 07:43:09 51°13.636 2°56.019 4 282 -2.9 103910 35
2012-02-08 07:43:14 51°13.636 2°56.019 5.1 21 -2.9 103920 36
2012-02-08 07:43:20 51°13.636 2°56.019 5.1 288 -2.9 103920 36
2012-02-08 07:43:24 51°13.636 2°56.019 4.6 20 -2.9 103920 34
2012-02-08 07:43:30 51°13.636 2°56.019 3.3 311 -2.9 103920 34
2012-02-08 07:43:35 51°13.636 2°56.018 3.4 22 -2.9 103920 35
2012-02-08 07:43:40 51°13.636 2°56.019 4.8 287 -2.9 103920 35
2012-02-08 07:43:44 51°13.636 2°56.019 5.4 18 -2.9 103920 34
2012-02-08 07:43:50 51°13.636 2°56.02 4.6 283 -2.9 103920 34
2012-02-08 07:43:55 51°13.636 2°56.019 5.3 250 -2.9 103920 33
2012-02-08 07:43:59 51°13.636 2°56.019 4.5 281 -2.9 103920 33
2012-02-08 07:44:04 51°13.636 2°56.019 3.1 26 -2.9 103920 34
2012-02-08 07:44:09 51°13.636 2°56.019 3.2 285 -2.9 103920 34
2012-02-08 07:44:14 51°13.636 2°56.02 3.5 256 -2.9 103920 34
2012-02-08 07:44:19 51°13.637 2°56.02 3.5 309 -2.9 103920 34
2012-02-08 07:44:24 51°13.636 2°56.02 6.7 21 -2.9 103920 36
2012-02-08 07:44:29 51°13.636 2°56.02 6.8 281 -2.9 103920 36
2012-02-08 07:44:33 51°13.636 2°56.02 5.9 254 -2.9 103920 36
2012-02-08 07:44:40 51°13.637 2°56.019 7.5 311 -2.9 103920 36
2012-02-08 07:44:45 51°13.637 2°56.019 5 253 -2.9 103920 34
2012-02-08 07:44:49 51°13.637 2°56.02 4.9 289 -2.9 103920 34
2012-02-08 07:44:54 51°13.637 2°56.019 5.7 253 -2.9 103920 35
2012-02-08 07:44:59 51°13.637 2°56.019 5.5 289 -2.9 103920 35
2012-02-08 07:45:05 51°13.637 2°56.019 4.7 17 -2.9 103920 36
2012-02-08 07:45:10 51°13.637 2°56.02 4.4 282 -2.9 103920 36
2012-02-08 07:45:15 51°13.636 2°56.02 4.6 18 -2.9 103920 36
2012-02-08 07:45:19 51°13.636 2°56.019 6.3 287 -2.9 103920 36
2012-02-08 07:45:25 51°13.636 2°56.019 5.7 21 -2.9 103920 35
2012-02-08 07:45:30 51°13.636 2°56.019 4.9 287 -2.9 103920 35
2012-02-08 07:45:35 51°13.636 2°56.019 3.3 20 -2.9 103920 36
2012-02-08 07:45:39 51°13.636 2°56.019 3.8 288 -2.9 103920 36
2012-02-08 07:45:44 51°13.636 2°56.019 2.5 18 -2.9 103920 35
2012-02-08 07:45:49 51°13.636 2°56.019 4 304 -2.9 103920 35
2012-02-08 07:45:55 51°13.636 2°56.019 3.8 19 -2.9 103920 35
2012-02-08 07:45:59 51°13.636 2°56.019 5 287 -2.9 103920 35
2012-02-08 07:46:04 51°13.636 2°56.019 5 249 -2.9 103930 36
2012-02-08 07:46:09 51°13.636 2°56.019 4.1 311 -2.9 103930 36
2012-02-08 07:46:14 51°13.636 2°56.019 5.7 20 -2.9 103920 34
2012-02-08 07:46:20 51°13.636 2°56.018 6.2 283 -2.9 103920 34
2012-02-08 07:46:25 51°13.636 2°56.018 3.4 18 -2.9 103930 35
2012-02-08 07:46:29 51°13.636 2°56.019 5.1 284 -2.9 103930 35
2012-02-08 07:46:34 51°13.636 2°56.019 3.7 249 -2.9 103920 33
2012-02-08 07:46:39 51°13.636 2°56.019 3.6 288 -2.9 103920 33
2012-02-08 07:46:44 51°13.636 2°56.018 3 18 -2.9 103920 34
2012-02-08 07:46:49 51°13.636 2°56.018 2.6 285 -2.9 103920 34
2012-02-08 07:46:54 51°13.637 2°56.017 4.1 261 -2.9 103930 36
2012-02-08 07:47:00 51°13.637 2°56.017 5.1 284 -2.9 103930 36
2012-02-08 07:47:05 51°13.637 2°56.018 5.9 21 -2.9 103920 35
2012-02-08 07:47:10 51°13.637 2°56.018 6.4 281 -2.9 103920 35
2012-02-08 07:47:14 51°13.636 2°56.018 3.1 252 -2.9 103930 35
2012-02-08 07:47:20 51°13.636 2°56.019 6.2 285 -2.9 103930 35
2012-02-08 07:47:25 51°13.637 2°56.018 5.4 24 -2.9 103920 35
2012-02-08 07:47:29 51°13.637 2°56.019 7.4 288 -2.9 103920 35
2012-02-08 07:47:34 51°13.636 2°56.019 4.6 20 -2.9 103930 36
2012-02-08 07:47:39 51°13.637 2°56.019 5 283 -2.9 103930 36
2012-02-08 07:47:44 51°13.636 2°56.019 6.2 256 -2.9 103930 36
2012-02-08 07:47:49 51°13.636 2°56.019 5.9 280 -2.9 103930 36
2012-02-08 07:47:54 51°13.637 2°56.018 6.1 255 -2.9 103920 36
2012-02-08 07:47:59 51°13.636 2°56.019 3.1 284 -2.9 103920 36
2012-02-08 07:48:03 51°13.636 2°56.019 4.8 247 -2.9 103920 36
2012-02-08 07:48:10 51°13.636 2°56.018 4.9 288 -2.9 103920 36
2012-02-08 07:48:14 51°13.636 2°56.019 3.9 18 -2.9 103920 36
2012-02-08 07:48:19 51°13.636 2°56.019 4.6 282 -2.9 103920 36
2012-02-08 07:48:24 51°13.636 2°56.019 5.1 252 -2.9 103920 35
2012-02-08 07:48:29 51°13.636 2°56.019 4.1 282 -2.9 103920 35
2012-02-08 07:48:35 51°13.636 2°56.019 4.5 25 -2.9 103920 35
2012-02-08 07:48:39 51°13.636 2°56.019 3.4 287 -2.9 103920 35
2012-02-08 07:48:44 51°13.636 2°56.018 4.4 26 -2.9 103920 35
2012-02-08 07:48:49 51°13.636 2°56.018 4.8 286 -2.9 103920 35
2012-02-08 07:48:55 51°13.636 2°56.019 4.6 246 -2.9 103920 36
2012-02-08 07:49:00 51°13.636 2°56.018 4.3 281 -2.9 103920 36
2012-02-08 07:49:04 51°13.636 2°56.018 3.5 25 -2.9 103920 35
2012-02-08 07:49:09 51°13.636 2°56.019 4.5 286 -2.9 103920 35
2012-02-08 07:49:14 51°13.636 2°56.019 4.7 25 -2.9 103920 35
2012-02-08 07:49:19 51°13.636 2°56.019 5.3 288 -2.9 103920 35
2012-02-08 07:49:24 51°13.635 2°56.018 3.5 249 -2.9 103920 36
2012-02-08 07:49:30 51°13.636 2°56.018 4.7 283 -2.9 103920 36
2012-02-08 07:49:34 51°13.636 2°56.018 2.8 24 -2.9 103920 36
2012-02-08 07:49:40 51°13.636 2°56.018 2.9 284 -2.9 103920 36
2012-02-08 07:49:44 51°13.636 2°56.018 1.9 24 -2.9 103920 35
2012-02-08 07:49:49 51°13.636 2°56.018 4.2 281 -2.9 103920 35
2012-02-08 07:49:53 51°13.636 2°56.018 2.6 245 -2.9 103930 35
2012-02-08 07:49:59 51°13.636 2°56.018 3.4 286 -2.9 103930 35
2012-02-08 07:50:04 51°13.636 2°56.018 1.9 25 -2.9 103920 36
2012-02-08 07:50:10 51°13.636 2°56.019 2.3 288 -2.9 103920 36
2012-02-08 07:50:14 51°13.636 2°56.019 2.3 19 -2.9 103930 36
2012-02-08 07:50:20 51°13.636 2°56.019 3 282 -2.9 103930 36
2012-02-08 07:50:25 51°13.636 2°56.02 3.8 250 -2.9 103920 36
2012-02-08 07:50:30 51°13.636 2°56.019 4.5 285 -2.9 103920 36
2012-02-08 07:50:34 51°13.636 2°56.019 4.2 19 -2.9 103920 35
2012-02-08 07:50:40 51°13.636 2°56.019 3.7 288 -2.9 103920 35
2012-02-08 07:50:45 51°13.636 2°56.019 5.3 25 -2.9 103920 35
2012-02-08 07:50:50 51°13.636 2°56.019 3.1 282 -2.9 103920 35
2012-02-08 07:50:54 51°13.636 2°56.019 2.1 250 -2.9 103930 35
2012-02-08 07:51:00 51°13.636 2°56.019 3.7 288 -2.9 103930 35
2012-02-08 07:51:05 51°13.636 2°56.019 4.4 318 -2.9 103930 36
2012-02-08 07:51:10 51°13.636 2°56.019 4.5 287 -2.9 103930 36
2012-02-08 07:51:14 51°13.636 2°56.019 4 17 -2.9 103930 34
2012-02-08 07:51:20 51°13.636 2°56.018 3.8 282 -2.9 103930 34
2012-02-08 07:51:24 51°13.636 2°56.018 3.9 18 -2.9 103920 36
2012-02-08 07:51:29 51°13.636 2°56.018 4 282 -2.9 103920 36
2012-02-08 07:51:34 51°13.636 2°56.017 5.3 319 -2.9 103920 35
2012-02-08 07:51:39 51°13.635 2°56.019 3.3 288 -2.9 103920 35
2012-02-08 07:51:44 51°13.635 2°56.019 3.7 20 -2.9 103930 35
2012-02-08 07:51:49 51°13.635 2°56.019 3.5 284 -2.9 103930 35
2012-02-08 07:51:54 51°13.635 2°56.018 4 24 -2.9 103930 35
2012-02-08 07:51:59 51°13.635 2°56.018 2.5 287 -2.9 103930 35
2012-02-08 07:52:04 51°13.635 2°56.019 4.3 27 -2.9 103920 35
2012-02-08 07:52:10 51°13.635 2°56.018 4.3 282 -2.9 103920 35
2012-02-08 07:52:15 51°13.635 2°56.018 5.8 25 -2.9 103920 36
2012-02-08 07:52:19 51°13.634 2°56.018 6.2 283 -2.9 103920 36
2012-02-08 07:52:24 51°13.634 2°56.018 5 21 -2.9 103930 35
2012-02-08 07:52:30 51°13.635 2°56.016 5.1 285 -2.9 103930 35
2012-02-08 07:52:34 51°13.635 2°56.015 4 20 -2.9 103920 36
2012-02-08 07:52:39 51°13.635 2°56.013 4.7 288 -2.9 103920 36
2012-02-08 07:52:43 51°13.636 2°56.01 3.7 20 -2.9 103930 34
2012-02-08 07:52:49 51°13.636 2°56.006 3.4 281 -2.9 103930 34
2012-02-08 07:52:54 51°13.637 2°56.001 3.3 19 -2.9 103930 34
2012-02-08 07:52:59 51°13.638 2°55.996 2.9 283 -2.9 103930 34
2012-02-08 07:53:04 51°13.639 2°55.991 3.5 20 -2.9 103920 35
2012-02-08 07:53:09 51°13.64 2°55.985 4.5 282 -2.9 103920 35
2012-02-08 07:53:14 51°13.642 2°55.978 3 19 -2.9 103930 35
2012-02-08 07:53:19 51°13.644 2°55.971 2.6 284 -2.9 103930 35
2012-02-08 07:53:24 51°13.646 2°55.963 1.8 20 -2.9 103930 37
2012-02-08 07:53:29 51°13.647 2°55.955 0.6 289 -2.9 103930 37
2012-02-08 07:53:34 51°13.649 2°55.947 0.4 336 -2.8 103930 36
2012-02-08 07:53:40 51°13.652 2°55.936 2.4 283 -2.8 103930 36
2012-02-08 07:53:45 51°13.653 2°55.927 2.3 20 -2.8 103930 34
2012-02-08 07:53:49 51°13.655 2°55.92 0.8 284 -2.8 103930 34
2012-02-08 07:53:54 51°13.657 2°55.911 1.3 18 -2.8 103930 37
2012-02-08 07:53:59 51°13.659 2°55.902 2.2 286 -2.8 103930 37
2012-02-08 07:54:04 51°13.661 2°55.893 2.4 252 -2.9 103930 36
2012-02-08 07:54:09 51°13.663 2°55.884 1.6 284 -2.9 103930 36
2012-02-08 07:54:15 51°13.666 2°55.874 0.3 261 -2.9 103930 36
2012-02-08 07:54:19 51°13.668 2°55.867 2.6 286 -2.9 103930 36
2012-02-08 07:54:25 51°13.672 2°55.855 2.1 25 -2.8 103930 35
2012-02-08 07:54:30 51°13.675 2°55.847 2.2 286 -2.8 103930 35
2012-02-08 07:54:34 51°13.679 2°55.839 2.9 268 -2.8 103930 34
2012-02-08 07:54:40 51°13.682 2°55.829 4.3 289 -2.8 103930 34
2012-02-08 07:54:45 51°13.685 2°55.82 4.7 261 -2.9 103930 36
2012-02-08 07:54:50 51°13.689 2°55.811 3.2 283 -2.9 103930 36
2012-02-08 07:54:54 51°13.693 2°55.803 4.5 266 -2.8 103930 35
2012-02-08 07:54:59 51°13.697 2°55.796 3.8 289 -2.8 103930 35
2012-02-08 07:55:04 51°13.702 2°55.788 3.9 263 -2.9 103930 35
2012-02-08 07:55:10 51°13.708 2°55.776 4.3 78 -2.9 103930 35
2012-02-08 07:55:14 51°13.713 2°55.769 4.4 265 -2.9 103930 36
2012-02-08 07:55:20 51°13.719 2°55.759 5.5 285 -2.9 103930 36
2012-02-08 07:55:25 51°13.725 2°55.75 3.3 269 -2.9 103930 37
2012-02-08 07:55:29 51°13.73 2°55.743 3.8 287 -2.9 103930 37
2012-02-08 07:55:34 51°13.736 2°55.734 5.7 27 -2.9 103940 36
2012-02-08 07:55:39 51°13.742 2°55.726 6.3 281 -2.9 103940 36
2012-02-08 07:55:44 51°13.748 2°55.717 7.1 258 -2.9 103950 35
2012-02-08 07:55:48 51°13.753 2°55.71 5.6 286 -2.9 103950 35
2012-02-08 07:55:54 51°13.761 2°55.7 4 263 -2.8 103940 37
2012-02-08 07:55:59 51°13.767 2°55.692 4 287 -2.8 103940 37
2012-02-08 07:56:04 51°13.774 2°55.684 4.8 270 -2.9 103950 37
2012-02-08 07:56:09 51°13.78 2°55.676 4.7 72 -2.9 103950 37
2012-02-08 07:56:15 51°13.789 2°55.667 3.9 267 -2.9 103950 36
2012-02-08 07:56:20 51°13.796 2°55.66 5.1 73 -2.9 103950 36
2012-02-08 07:56:24 51°13.802 2°55.655 5.5 267 -2.9 103940 34
2012-02-08 07:56:29 51°13.809 2°55.649 6.4 74 -2.9 103940 34
2012-02-08 07:56:34 51°13.817 2°55.645 7.7 23 -2.9 103940 35
2012-02-08 07:56:39 51°13.824 2°55.64 5.9 73 -2.9 103940 35
2012-02-08 07:56:44 51°13.832 2°55.635 5 21 -2.8 103940 37
2012-02-08 07:56:50 51°13.842 2°55.631 5.2 289 -2.8 103940 37
2012-02-08 07:56:54 51°13.848 2°55.629 6 22 -2.9 103930 35
2012-02-08 07:56:59 51°13.856 2°55.626 6.5 79 -2.9 103930 35
2012-02-08 07:57:04 51°13.865 2°55.623 6.5 19 -2.9 103950 37
2012-02-08 07:57:09 51°13.873 2°55.622 7.6 76 -2.9 103950 37
2012-02-08 07:57:15 51°13.883 2°55.621 6.3 21 -2.9 103940 34
2012-02-08 07:57:20 51°13.89 2°55.621 7.3 76 -2.9 103940 34
2012-02-08 07:57:25 51°13.898 2°55.621 7.5 26 -2.9 103950 37
2012-02-08 07:57:30 51°13.906 2°55.621 7.8 74 -2.9 103950 37
2012-02-08 07:57:35 51°13.913 2°55.622 7.8 19 -2.8 103940 36
2012-02-08 07:57:40 51°13.92 2°55.623 7.3 71 -2.8 103940 36
2012-02-08 07:57:45 51°13.926 2°55.625 7.3 21 -2.9 103950 36
2012-02-08 07:57:49 51°13.932 2°55.626 5.7 78 -2.9 103950 36
2012-02-08 07:57:54 51°13.938 2°55.629 5.7 19 -2.9 103940 35
2012-02-08 07:57:59 51°13.944 2°55.631 5.4 72 -2.9 103940 35
2012-02-08 07:58:05 51°13.95 2°55.634 4.4 18 -2.9 103940 36
2012-02-08 07:58:10 51°13.955 2°55.637 5.3 76 -2.9 103940 36
2012-02-08 07:58:14 51°13.959 2°55.639 5.1 26 -2.9 103940 35
2012-02-08 07:58:20 51°13.964 2°55.642 5.3 79 -2.9 103940 35
2012-02-08 07:58:24 51°13.967 2°55.645 5.3 25 -2.8 103940 36
2012-02-08 07:58:29 51°13.97 2°55.647 4.5 78 -2.8 103940 36
2012-02-08 07:58:34 51°13.973 2°55.649 4.4 20 -2.9 103940 35
2012-02-08 07:58:39 51°13.974 2°55.651 5.1 72 -2.9 103940 35
2012-02-08 07:58:44 51°13.976 2°55.652 2.2 18 -2.9 103930 36
2012-02-08 07:58:49 51°13.976 2°55.651 4.1 78 -2.9 103930 36
2012-02-08 07:58:54 51°13.976 2°55.649 3 19 -2.8 103940 36
2012-02-08 07:58:58 51°13.976 2°55.646 3.4 72 -2.8 103940 36
2012-02-08 07:59:04 51°13.975 2°55.641 5 29 -2.8 103940 37
2012-02-08 07:59:09 51°13.975 2°55.635 4.4 41 -2.8 103940 37
2012-02-08 07:59:14 51°13.975 2°55.627 4.2 32 -2.8 103930 37
2012-02-08 07:59:19 51°13.976 2°55.62 3.3 35 -2.8 103930 37
2012-02-08 07:59:24 51°13.978 2°55.612 4.7 34 -2.8 103930 35
2012-02-08 07:59:30 51°13.981 2°55.601 5.1 34 -2.8 103930 35
2012-02-08 07:59:35 51°13.985 2°55.593 4 15 -2.8 103920 35
2012-02-08 07:59:39 51°13.988 2°55.585 2.9 12 -2.8 103920 35
2012-02-08 07:59:44 51°13.993 2°55.576 4.7 12 -2.8 103930 37
2012-02-08 07:59:50 51°14 2°55.565 4.1 11 -2.8 103930 37
2012-02-08 07:59:55 51°14.006 2°55.556 3.7 4 -2.8 103930 34
2012-02-08 07:59:59 51°14.012 2°55.548 4.9 353 -2.8 103930 34
2012-02-08 08:00:04 51°14.02 2°55.539 4.2 353 -2.8 103930 37
2012-02-08 08:00:09 51°14.028 2°55.529 5.6 356 -2.8 103930 37
2012-02-08 08:00:15 51°14.038 2°55.518 6.2 357 -2.8 103930 35
2012-02-08 08:00:19 51°14.045 2°55.51 5.9 359 -2.8 103930 35
2012-02-08 08:00:24 51°14.054 2°55.5 5.2 1 -2.8 103930 36
2012-02-08 08:00:29 51°14.063 2°55.491 6.5 6 -2.8 103930 36
2012-02-08 08:00:34 51°14.073 2°55.481 4 1 -2.8 103920 36
2012-02-08 08:00:40 51°14.085 2°55.468 6.2 359 -2.8 103920 36
2012-02-08 08:00:43 51°14.091 2°55.462 6.8 350 -2.8 103930 36
2012-02-08 08:00:50 51°14.105 2°55.447 6.3 3 -2.8 103930 36
2012-02-08 08:00:55 51°14.115 2°55.436 7 354 -2.8 103930 35
2012-02-08 08:01:00 51°14.126 2°55.425 7.7 358 -2.8 103930 35
2012-02-08 08:01:04 51°14.134 2°55.417 6.3 346 -2.8 103920 36
2012-02-08 08:01:10 51°14.147 2°55.404 7.2 358 -2.8 103920 36
2012-02-08 08:01:14 51°14.155 2°55.396 7.1 347 -2.8 103930 36
2012-02-08 08:01:19 51°14.166 2°55.386 6.8 352 -2.8 103930 36
2012-02-08 08:01:24 51°14.177 2°55.376 9.5 2 -2.8 103920 36
2012-02-08 08:01:29 51°14.188 2°55.365 9.8 359 -2.8 103920 36
2012-02-08 08:01:34 51°14.199 2°55.354 8.2 3 -2.8 103930 36
2012-02-08 08:01:39 51°14.209 2°55.343 7.1 4 -2.8 103930 36
2012-02-08 08:01:44 51°14.22 2°55.332 7.5 6 -2.8 103920 35
2012-02-08 08:01:49 51°14.231 2°55.322 6.7 2 -2.8 103920 35
2012-02-08 08:01:54 51°14.242 2°55.312 8.3 7 -2.8 103910 35
2012-02-08 08:01:59 51°14.253 2°55.301 10.2 8 -2.8 103910 35
2012-02-08 08:02:04 51°14.263 2°55.291 10 5 -2.8 103910 36
2012-02-08 08:02:09 51°14.274 2°55.28 9.1 4 -2.8 103910 36
2012-02-08 08:02:14 51°14.285 2°55.27 7 8 -2.8 103910 35
2012-02-08 08:02:20 51°14.299 2°55.257 7.3 7 -2.8 103910 35
2012-02-08 08:02:25 51°14.31 2°55.247 10.8 7 -2.8 103910 35
2012-02-08 08:02:29 51°14.319 2°55.238 9.1 359 -2.8 103910 35
2012-02-08 08:02:34 51°14.33 2°55.227 7.8 5 -2.8 103910 34
2012-02-08 08:02:40 51°14.344 2°55.213 7.7 9 -2.8 103910 34
2012-02-08 08:02:45 51°14.355 2°55.201 9.2 7 -2.8 103900 36
2012-02-08 08:02:49 51°14.364 2°55.192 8.2 4 -2.8 103900 36
2012-02-08 08:02:54 51°14.376 2°55.181 10.7 8 -2.8 103910 37
2012-02-08 08:02:59 51°14.388 2°55.169 9.2 1 -2.8 103910 37
2012-02-08 08:03:04 51°14.399 2°55.157 10.5 12 -2.8 103900 37
2012-02-08 08:03:09 51°14.411 2°55.145 11.2 10 -2.8 103900 37
2012-02-08 08:03:14 51°14.423 2°55.132 8.3 6 -2.7 103900 37
2012-02-08 08:03:19 51°14.434 2°55.119 11.2 12 -2.7 103900 37
2012-02-08 08:03:24 51°14.445 2°55.106 10.2 7 -2.7 103900 37
2012-02-08 08:03:30 51°14.46 2°55.09 9.9 9 -2.7 103900 37
2012-02-08 08:03:35 51°14.471 2°55.077 9.9 11 -2.7 103900 37
2012-02-08 08:03:39 51°14.481 2°55.066 9.9 14 -2.7 103900 37
2012-02-08 08:03:45 51°14.494 2°55.048 8.4 8 -2.7 103900 36
2012-02-08 08:03:50 51°14.505 2°55.033 9.2 10 -2.7 103900 36
2012-02-08 08:03:54 51°14.514 2°55.02 11 11 -2.7 103890 36
2012-02-08 08:03:58 51°14.522 2°55.006 11.4 12 -2.7 103890 36
2012-02-08 08:04:03 51°14.532 2°54.988 9.9 13 -2.7 103900 36
2012-02-08 08:04:10 51°14.546 2°54.963 8.9 12 -2.7 103900 36
2012-02-08 08:04:14 51°14.555 2°54.948 9.1 11 -2.7 103900 37
2012-02-08 08:04:19 51°14.565 2°54.93 8.6 6 -2.7 103900 37
2012-02-08 08:04:24 51°14.576 2°54.913 6.8 8 -2.7 103890 37
2012-02-08 08:04:29 51°14.586 2°54.894 9.3 13 -2.7 103890 37
2012-02-08 08:04:34 51°14.596 2°54.875 7.7 17 -2.7 103900 37
2012-02-08 08:04:39 51°14.605 2°54.854 7.9 14 -2.7 103900 37
2012-02-08 08:04:44 51°14.613 2°54.832 7.6 18 -2.6 103900 38
2012-02-08 08:04:49 51°14.62 2°54.809 7.1 20 -2.6 103900 38
2012-02-08 08:04:54 51°14.627 2°54.785 7 18 -2.6 103900 37
2012-02-08 08:05:00 51°14.632 2°54.756 6.1 21 -2.6 103900 37
2012-02-08 08:05:04 51°14.635 2°54.737 5.7 30 -2.6 103910 38
2012-02-08 08:05:09 51°14.637 2°54.711 5.4 31 -2.6 103910 38
2012-02-08 08:05:14 51°14.638 2°54.685 4.1 35 -2.6 103910 35
2012-02-08 08:05:19 51°14.638 2°54.659 4.2 38 -2.6 103910 35
2012-02-08 08:05:24 51°14.637 2°54.633 3.9 24 -2.5 103910 38
2012-02-08 08:05:28 51°14.634 2°54.612 2.9 78 -2.5 103910 38
2012-02-08 08:05:33 51°14.63 2°54.587 3 19 -2.5 103920 38
2012-02-08 08:05:39 51°14.623 2°54.556 2.4 78 -2.5 103920 38
2012-02-08 08:05:43 51°14.619 2°54.536 1.4 20 -2.5 103930 37
2012-02-08 08:05:49 51°14.609 2°54.507 0.3 76 -2.5 103930 37
2012-02-08 08:05:53 51°14.602 2°54.488 3.9 27 -2.5 103920 36
2012-02-08 08:05:58 51°14.593 2°54.464 5 78 -2.5 103920 36
2012-02-08 08:06:03 51°14.586 2°54.44 4.2 19 -2.5 103920 36
2012-02-08 08:06:09 51°14.574 2°54.411 4.3 78 -2.5 103920 36
2012-02-08 08:06:13 51°14.566 2°54.392 3.9 20 -2.5 103920 36
2012-02-08 08:06:18 51°14.557 2°54.368 4 73 -2.5 103920 36
2012-02-08 08:06:22 51°14.549 2°54.349 3.2 23 -2.5 103920 38
2012-02-08 08:06:29 51°14.536 2°54.315 3.4 74 -2.5 103920 38
2012-02-08 08:06:34 51°14.527 2°54.291 2.8 20 -2.5 103920 38
2012-02-08 08:06:38 51°14.52 2°54.271 2.6 79 -2.5 103920 38
2012-02-08 08:06:43 51°14.51 2°54.247 2.9 20 -2.5 103930 37
2012-02-08 08:06:48 51°14.499 2°54.224 3.5 77 -2.5 103930 37
2012-02-08 08:06:53 51°14.49 2°54.199 4.6 23 -2.5 103920 36
2012-02-08 08:06:58 51°14.48 2°54.175 3.5 77 -2.5 103920 36
2012-02-08 08:07:02 51°14.472 2°54.154 4 20 -2.5 103920 38
2012-02-08 08:07:07 51°14.462 2°54.131 3.6 76 -2.5 103920 38
2012-02-08 08:07:12 51°14.452 2°54.106 3.9 24 -2.5 103920 36
2012-02-08 08:07:17 51°14.442 2°54.081 1.7 79 -2.5 103920 36
2012-02-08 08:07:22 51°14.432 2°54.056 3 20 -2.5 103930 36
2012-02-08 08:07:26 51°14.424 2°54.035 3.2 74 -2.5 103930 36
2012-02-08 08:07:31 51°14.414 2°54.009 2.2 21 -2.6 103920 35
2012-02-08 08:07:37 51°14.403 2°53.979 4.4 79 -2.6 103920 35
2012-02-08 08:07:41 51°14.395 2°53.958 3.2 24 -2.5 103930 37
2012-02-08 08:07:46 51°14.385 2°53.933 3.8 72 -2.5 103930 37
2012-02-08 08:07:50 51°14.377 2°53.912 1.5 21 -2.5 103930 35
2012-02-08 08:07:56 51°14.366 2°53.881 3.3 76 -2.5 103930 35
2012-02-08 08:08:01 51°14.356 2°53.856 3.4 20 -2.5 103920 37
2012-02-08 08:08:06 51°14.345 2°53.831 4.1 71 -2.5 103920 37
2012-02-08 08:08:10 51°14.337 2°53.811 3.7 25 -2.5 103930 38
2012-02-08 08:08:15 51°14.326 2°53.786 4 79 -2.5 103930 38
2012-02-08 08:08:22 51°14.311 2°53.751 3.5 26 -2.5 103930 38
2012-02-08 08:08:27 51°14.301 2°53.725 1.5 76 -2.5 103930 38
2012-02-08 08:08:31 51°14.292 2°53.706 3.8 21 -2.5 103920 37
2012-02-08 08:08:36 51°14.281 2°53.681 3.8 78 -2.5 103920 37
2012-02-08 08:08:41 51°14.27 2°53.656 3.5 23 -2.5 103920 36
2012-02-08 08:08:46 51°14.26 2°53.632 2.7 71 -2.5 103920 36
2012-02-08 08:08:51 51°14.248 2°53.608 1.9 269 -2.5 103930 37
2012-02-08 08:08:55 51°14.24 2°53.587 1 74 -2.5 103930 37
2012-02-08 08:09:01 51°14.227 2°53.559 3.2 25 -2.4 103920 36
2012-02-08 08:09:06 51°14.217 2°53.533 2.4 73 -2.4 103920 36
2012-02-08 08:09:11 51°14.205 2°53.509 3.1 25 -2.4 103930 37
2012-02-08 08:09:16 51°14.194 2°53.485 2.3 78 -2.4 103930 37
2012-02-08 08:09:21 51°14.184 2°53.46 3.2 20 -2.4 103930 37
2012-02-08 08:09:26 51°14.172 2°53.436 3.9 77 -2.4 103930 37
2012-02-08 08:09:31 51°14.163 2°53.409 3.8 23 -2.4 103920 36
2012-02-08 08:09:36 51°14.151 2°53.385 4.5 73 -2.4 103920 36
2012-02-08 08:09:40 51°14.144 2°53.364 5.3 18 -2.4 103920 35
2012-02-08 08:09:46 51°14.131 2°53.336 4.3 77 -2.4 103920 35
2012-02-08 08:09:50 51°14.122 2°53.316 4.5 19 -2.4 103920 36
2012-02-08 08:09:55 51°14.111 2°53.291 4.2 79 -2.4 103920 36
2012-02-08 08:10:01 51°14.098 2°53.261 4.1 22 -2.3 103930 36
2012-02-08 08:10:06 51°14.088 2°53.237 4.5 77 -2.3 103930 36
2012-02-08 08:10:11 51°14.076 2°53.213 2.5 13 -2.4 103930 36
2012-02-08 08:10:16 51°14.066 2°53.188 2.8 284 -2.4 103930 36
2012-02-08 08:10:21 51°14.055 2°53.163 2.6 20 -2.4 103930 37
2012-02-08 08:10:26 51°14.046 2°53.138 2.1 72 -2.4 103930 37
2012-02-08 08:10:31 51°14.035 2°53.113 2.8 20 -2.4 103920 37
2012-02-08 08:10:36 51°14.026 2°53.086 3 72 -2.4 103920 37
2012-02-08 08:10:41 51°14.016 2°53.062 3.5 20 -2.4 103920 38
2012-02-08 08:10:45 51°14.009 2°53.04 1.8 77 -2.4 103920 38
2012-02-08 08:10:51 51°13.997 2°53.009 2.1 23 -2.4 103930 36
2012-02-08 08:10:56 51°13.989 2°52.983 2.7 83 -2.4 103930 36
2012-02-08 08:11:01 51°13.98 2°52.956 2.3 26 -2.4 103930 35
2012-02-08 08:11:05 51°13.973 2°52.935 3.5 75 -2.4 103930 35
2012-02-08 08:11:10 51°13.964 2°52.909 1.3 22 -2.4 103930 36
2012-02-08 08:11:16 51°13.95 2°52.879 2 83 -2.4 103930 36
2012-02-08 08:11:21 51°13.943 2°52.852 2.8 20 -2.4 103920 36
2012-02-08 08:11:25 51°13.933 2°52.833 2.8 73 -2.4 103920 36
2012-02-08 08:11:31 51°13.923 2°52.8 3.5 23 -2.3 103920 38
2012-02-08 08:11:36 51°13.913 2°52.776 3.6 72 -2.3 103920 38
2012-02-08 08:11:41 51°13.903 2°52.75 2.6 26 -2.3 103920 37
2012-02-08 08:11:45 51°13.894 2°52.73 3.1 75 -2.3 103920 37
2012-02-08 08:11:51 51°13.883 2°52.699 3.2 21 -2.3 103920 37
2012-02-08 08:11:56 51°13.872 2°52.675 3.1 78 -2.3 103920 37
2012-02-08 08:12:01 51°13.862 2°52.649 3.1 20 -2.3 103930 37
2012-02-08 08:12:05 51°13.853 2°52.629 2.6 73 -2.3 103930 37
2012-02-08 08:12:11 51°13.841 2°52.6 3 21 -2.3 103920 36
2012-02-08 08:12:16 51°13.83 2°52.575 2.9 78 -2.3 103920 36
2012-02-08 08:12:21 51°13.82 2°52.549 2.2 21 -2.4 103930 37
2012-02-08 08:12:25 51°13.811 2°52.529 1.7 283 -2.4 103930 37
2012-02-08 08:12:30 51°13.801 2°52.504 2.4 21 -2.4 103930 38
2012-02-08 08:12:36 51°13.788 2°52.475 2.4 280 -2.4 103930 38
2012-02-08 08:12:41 51°13.778 2°52.449 4.7 27 -2.3 103930 38
2012-02-08 08:12:45 51°13.77 2°52.429 4.6 72 -2.3 103930 38
2012-02-08 08:12:50 51°13.76 2°52.404 3.9 24 -2.3 103930 38
2012-02-08 08:12:55 51°13.75 2°52.378 3.5 79 -2.3 103930 38
2012-02-08 08:13:01 51°13.739 2°52.347 1.9 25 -2.3 103920 38
2012-02-08 08:13:05 51°13.732 2°52.326 1.4 71 -2.3 103920 38
2012-02-08 08:13:11 51°13.722 2°52.294 2.2 27 -2.3 103930 37
2012-02-08 08:13:16 51°13.713 2°52.268 1.3 39 -2.3 103930 37
2012-02-08 08:13:21 51°13.704 2°52.241 2.5 18 -2.3 103930 38
2012-02-08 08:13:25 51°13.698 2°52.22 2.8 73 -2.3 103930 38
2012-02-08 08:13:31 51°13.687 2°52.187 2.3 26 -2.2 103930 37
2012-02-08 08:13:36 51°13.679 2°52.16 2.5 71 -2.2 103930 37
2012-02-08 08:13:41 51°13.67 2°52.134 3.2 20 -2.2 103930 37
2012-02-08 08:13:45 51°13.663 2°52.112 1.6 74 -2.2 103930 37
2012-02-08 08:13:51 51°13.652 2°52.08 4.1 27 -2.2 103930 38
2012-02-08 08:13:56 51°13.642 2°52.055 3.5 78 -2.2 103930 38
2012-02-08 08:14:01 51°13.633 2°52.029 2.5 27 -2.2 103930 37
2012-02-08 08:14:05 51°13.625 2°52.008 3.2 75 -2.2 103930 37
2012-02-08 08:14:11 51°13.614 2°51.976 2.9 36 -2.2 103930 37
2012-02-08 08:14:16 51°13.604 2°51.951 1.6 77 -2.2 103930 37
2012-02-08 08:14:21 51°13.596 2°51.924 2.5 27 -2.2 103930 38
2012-02-08 08:14:25 51°13.588 2°51.903 2 72 -2.2 103930 38
2012-02-08 08:14:31 51°13.575 2°51.872 0.8 18 -2.2 103930 37
2012-02-08 08:14:36 51°13.565 2°51.848 3.6 76 -2.2 103930 37
2012-02-08 08:14:41 51°13.554 2°51.823 1 23 -2.2 103930 37
2012-02-08 08:14:45 51°13.546 2°51.802 2.9 81 -2.2 103930 37
2012-02-08 08:14:51 51°13.532 2°51.774 1.8 26 -2.2 103930 38
2012-02-08 08:14:56 51°13.522 2°51.749 1.6 78 -2.2 103930 38
2012-02-08 08:15:01 51°13.511 2°51.724 1.4 24 -2.2 103930 37
2012-02-08 08:15:05 51°13.503 2°51.704 0.9 71 -2.2 103930 37
2012-02-08 08:15:10 51°13.491 2°51.68 2.1 26 -2.2 103930 38
2012-02-08 08:15:16 51°13.48 2°51.649 2.2 14 -2.2 103930 38
2012-02-08 08:15:21 51°13.468 2°51.625 1.9 25 -2.2 103930 37
2012-02-08 08:15:26 51°13.458 2°51.6 1.7 79 -2.2 103930 37
2012-02-08 08:15:31 51°13.446 2°51.576 3.3 19 -2.2 103930 36
2012-02-08 08:15:36 51°13.437 2°51.55 3.1 73 -2.2 103930 36
2012-02-08 08:15:41 51°13.425 2°51.526 2.8 22 -2.1 103930 36
2012-02-08 08:15:45 51°13.417 2°51.504 2.1 67 -2.1 103930 36
2012-02-08 08:15:51 51°13.404 2°51.475 2.5 19 -2.1 103930 37
2012-02-08 08:15:56 51°13.395 2°51.449 1.8 288 -2.1 103930 37
2012-02-08 08:16:01 51°13.384 2°51.423 3 24 -2.1 103930 37
2012-02-08 08:16:05 51°13.377 2°51.402 2.5 79 -2.1 103930 37
2012-02-08 08:16:11 51°13.365 2°51.371 2.3 20 -2.1 103930 38
2012-02-08 08:16:16 51°13.355 2°51.346 3.9 77 -2.1 103930 38
2012-02-08 08:16:21 51°13.346 2°51.319 3.6 25 -2.1 103930 37
2012-02-08 08:16:25 51°13.338 2°51.298 4.2 72 -2.1 103930 37
2012-02-08 08:16:30 51°13.328 2°51.272 3.7 17 -2.1 103930 37
2012-02-08 08:16:36 51°13.316 2°51.242 3.9 76 -2.1 103930 37
2012-02-08 08:16:41 51°13.305 2°51.216 2.6 22 -2.1 103930 38
2012-02-08 08:16:45 51°13.297 2°51.195 2.6 72 -2.1 103930 38
2012-02-08 08:16:51 51°13.283 2°51.166 3.1 24 -2.1 103930 36
2012-02-08 08:16:56 51°13.272 2°51.14 2.7 74 -2.1 103930 36
2012-02-08 08:17:01 51°13.261 2°51.115 3.3 23 -2.2 103930 36
2012-02-08 08:17:05 51°13.252 2°51.094 4.1 77 -2.2 103930 36
2012-02-08 08:17:11 51°13.238 2°51.065 3.1 24 -2.2 103930 38
2012-02-08 08:17:16 51°13.226 2°51.039 2.9 72 -2.2 103930 38
2012-02-08 08:17:21 51°13.217 2°51.012 2.3 25 -2.2 103930 36
2012-02-08 08:17:25 51°13.208 2°50.992 2.4 78 -2.2 103930 36
2012-02-08 08:17:30 51°13.196 2°50.967 0.7 20 -2.2 103920 38
2012-02-08 08:17:36 51°13.183 2°50.935 2.1 283 -2.2 103920 38
2012-02-08 08:17:41 51°13.171 2°50.91 1.4 265 -2.2 103930 36
2012-02-08 08:17:46 51°13.16 2°50.884 2.6 75 -2.2 103930 36
2012-02-08 08:17:51 51°13.15 2°50.858 4.3 270 -2.2 103930 38
2012-02-08 08:17:56 51°13.137 2°50.834 2.9 75 -2.2 103930 38
2012-02-08 08:18:01 51°13.127 2°50.806 3.5 24 -2.2 103920 38
2012-02-08 08:18:05 51°13.118 2°50.787 3.3 72 -2.2 103920 38
2012-02-08 08:18:11 51°13.105 2°50.755 2.6 17 -2.2 103930 40
2012-02-08 08:18:16 51°13.095 2°50.727 1.3 80 -2.2 103930 40
2012-02-08 08:18:21 51°13.085 2°50.701 1.1 26 -2.2 103920 38
2012-02-08 08:18:25 51°13.076 2°50.68 1.6 285 -2.2 103920 38
2012-02-08 08:18:31 51°13.065 2°50.647 0.8 20 -2.2 103920 36
2012-02-08 08:18:36 51°13.053 2°50.621 1.7 77 -2.2 103920 36
2012-02-08 08:18:41 51°13.045 2°50.592 1.3 17 -2.3 103930 38
2012-02-08 08:18:45 51°13.036 2°50.572 1.2 75 -2.3 103930 38
2012-02-08 08:18:50 51°13.027 2°50.544 1.7 19 -2.3 103920 36
2012-02-08 08:18:56 51°13.013 2°50.513 3 76 -2.3 103920 36
2012-02-08 08:19:01 51°13.004 2°50.486 2.6 22 -2.3 103930 35
2012-02-08 08:19:05 51°12.996 2°50.465 3.5 76 -2.3 103930 35
2012-02-08 08:19:11 51°12.983 2°50.433 2.6 19 -2.3 103930 36
2012-02-08 08:19:16 51°12.972 2°50.409 3 80 -2.3 103930 36
2012-02-08 08:19:21 51°12.961 2°50.383 2.9 20 -2.3 103930 37
2012-02-08 08:19:25 51°12.953 2°50.363 2.5 73 -2.3 103930 37
2012-02-08 08:19:31 51°12.939 2°50.332 2.7 23 -2.3 103930 36
2012-02-08 08:19:36 51°12.929 2°50.306 1.7 70 -2.3 103930 36
2012-02-08 08:19:41 51°12.918 2°50.28 3.1 25 -2.3 103920 37
2012-02-08 08:19:45 51°12.909 2°50.26 3.1 71 -2.3 103920 37
2012-02-08 08:19:50 51°12.898 2°50.234 2 21 -2.3 103930 38
2012-02-08 08:19:56 51°12.885 2°50.203 2.8 75 -2.3 103930 38
2012-02-08 08:20:01 51°12.875 2°50.176 2 18 -2.3 103930 36
2012-02-08 08:20:05 51°12.868 2°50.155 1.2 81 -2.3 103930 36
2012-02-08 08:20:11 51°12.855 2°50.123 2.8 23 -2.2 103920 36
2012-02-08 08:20:16 51°12.846 2°50.095 1.7 68 -2.2 103920 36
2012-02-08 08:20:21 51°12.834 2°50.07 3.4 17 -2.2 103930 38
2012-02-08 08:20:25 51°12.826 2°50.05 3.8 74 -2.2 103930 38
2012-02-08 08:20:31 51°12.813 2°50.019 4 18 -2.2 103930 37
2012-02-08 08:20:36 51°12.802 2°49.993 2.8 73 -2.2 103930 37
2012-02-08 08:20:41 51°12.791 2°49.968 3.3 22 -2.2 103930 36
2012-02-08 08:20:45 51°12.781 2°49.948 2.8 78 -2.2 103930 36
2012-02-08 08:20:51 51°12.769 2°49.916 3.1 24 -2.2 103930 36
2012-02-08 08:20:56 51°12.758 2°49.891 3.4 77 -2.2 103930 36
2012-02-08 08:21:01 51°12.747 2°49.865 4.2 20 -2.2 103920 37
2012-02-08 08:21:05 51°12.738 2°49.845 3.8 72 -2.2 103920 37
2012-02-08 08:21:10 51°12.728 2°49.818 4.8 19 -2.2 103940 35
2012-02-08 08:21:16 51°12.716 2°49.786 4.3 79 -2.2 103940 35
2012-02-08 08:21:21 51°12.704 2°49.76 3.8 25 -2.2 103930 37
2012-02-08 08:21:25 51°12.697 2°49.738 3.4 73 -2.2 103930 37
2012-02-08 08:21:30 51°12.686 2°49.712 4.3 20 -2.3 103930 36
2012-02-08 08:21:35 51°12.675 2°49.686 4.5 76 -2.3 103930 36
2012-02-08 08:21:41 51°12.663 2°49.655 4.7 23 -2.3 103930 35
2012-02-08 08:21:45 51°12.654 2°49.634 4.4 77 -2.3 103930 35
2012-02-08 08:21:51 51°12.643 2°49.602 4.8 23 -2.3 103930 37
2012-02-08 08:21:56 51°12.632 2°49.576 2.5 77 -2.3 103930 37
2012-02-08 08:22:01 51°12.622 2°49.55 4.8 21 -2.3 103930 36
2012-02-08 08:22:05 51°12.613 2°49.53 3.9 79 -2.3 103930 36
2012-02-08 08:22:11 51°12.6 2°49.498 4.2 18 -2.3 103930 37
2012-02-08 08:22:16 51°12.589 2°49.473 3.5 74 -2.3 103930 37
2012-02-08 08:22:21 51°12.58 2°49.446 4.3 20 -2.3 103940 36
2012-02-08 08:22:25 51°12.57 2°49.426 2.9 74 -2.3 103940 36
2012-02-08 08:22:31 51°12.559 2°49.394 3.8 26 -2.3 103940 36
2012-02-08 08:22:36 51°12.549 2°49.368 3.3 74 -2.3 103940 36
2012-02-08 08:22:41 51°12.537 2°49.343 3.2 20 -2.3 103930 37
2012-02-08 08:22:45 51°12.53 2°49.321 1.5 71 -2.3 103930 37
2012-02-08 08:22:51 51°12.518 2°49.29 3.6 19 -2.3 103940 36
2012-02-08 08:22:56 51°12.509 2°49.263 2.4 78 -2.3 103940 36
2012-02-08 08:23:01 51°12.498 2°49.238 3.9 20 -2.4 103930 37
2012-02-08 08:23:05 51°12.492 2°49.216 2.9 75 -2.4 103930 37
2012-02-08 08:23:10 51°12.483 2°49.188 2.6 19 -2.4 103930 36
2012-02-08 08:23:16 51°12.472 2°49.158 2.9 81 -2.4 103930 36
2012-02-08 08:23:21 51°12.464 2°49.131 2.9 26 -2.4 103930 36
2012-02-08 08:23:25 51°12.456 2°49.109 2.7 72 -2.4 103930 36
2012-02-08 08:23:31 51°12.447 2°49.077 2.1 21 -2.4 103930 37
2012-02-08 08:23:36 51°12.436 2°49.051 1.8 -999 -2.4 103930 37
2012-02-08 08:23:41 51°12.43 2°49.024 1.6 22 -2.3 103930 37
2012-02-08 08:23:45 51°12.421 2°49.005 0.8 45 -2.3 103930 37
2012-02-08 08:23:51 51°12.412 2°48.972 2.7 19 -2.3 103940 35
2012-02-08 08:23:56 51°12.401 2°48.947 0.9 75 -2.3 103940 35
2012-02-08 08:24:01 51°12.394 2°48.92 1.2 265 -2.3 103930 36
2012-02-08 08:24:05 51°12.386 2°48.9 1.3 75 -2.3 103930 36
2012-02-08 08:24:10 51°12.377 2°48.873 1.7 22 -2.3 103930 38
2012-02-08 08:24:16 51°12.365 2°48.842 1.9 71 -2.3 103930 38
2012-02-08 08:24:21 51°12.356 2°48.815 0.3 21 -2.3 103940 35
2012-02-08 08:24:26 51°12.346 2°48.788 1 39 -2.3 103940 35
2012-02-08 08:24:31 51°12.337 2°48.763 0.5 39 -2.3 103940 36
2012-02-08 08:24:36 51°12.328 2°48.735 1 -999 -2.3 103940 36
2012-02-08 08:24:41 51°12.319 2°48.708 1.7 20 -2.3 103930 37
2012-02-08 08:24:45 51°12.311 2°48.687 0.7 74 -2.3 103930 37
2012-02-08 08:24:51 51°12.301 2°48.654 0.5 26 -2.3 103940 36
2012-02-08 08:24:56 51°12.29 2°48.629 2 71 -2.3 103940 36
2012-02-08 08:25:01 51°12.281 2°48.601 2.5 24 -2.2 103930 37
2012-02-08 08:25:05 51°12.273 2°48.58 0.8 72 -2.2 103930 37
2012-02-08 08:25:11 51°12.261 2°48.548 3.6 21 -2.2 103930 36
2012-02-08 08:25:16 51°12.252 2°48.521 2.2 73 -2.2 103930 36
2012-02-08 08:25:21 51°12.243 2°48.493 2.4 24 -2.2 103930 36
2012-02-08 08:25:25 51°12.236 2°48.471 3.1 79 -2.2 103930 36
2012-02-08 08:25:30 51°12.226 2°48.445 2.8 23 -2.2 103940 37
2012-02-08 08:25:36 51°12.215 2°48.412 3 75 -2.2 103940 37
2012-02-08 08:25:41 51°12.206 2°48.386 3.3 18 -2.2 103930 38
2012-02-08 08:25:45 51°12.199 2°48.364 3 71 -2.2 103930 38
2012-02-08 08:25:51 51°12.188 2°48.331 2.9 22 -2.2 103940 37
2012-02-08 08:25:56 51°12.178 2°48.305 2.8 74 -2.2 103940 37
2012-02-08 08:26:01 51°12.169 2°48.279 3.4 20 -2.2 103930 36
2012-02-08 08:26:05 51°12.16 2°48.258 3.1 80 -2.2 103930 36
2012-02-08 08:26:11 51°12.149 2°48.227 4.6 21 -2.1 103940 37
2012-02-08 08:26:16 51°12.139 2°48.2 2.6 72 -2.1 103940 37
2012-02-08 08:26:21 51°12.129 2°48.174 3.9 22 -2 103930 39
2012-02-08 08:26:25 51°12.121 2°48.153 3.9 78 -2 103930 39
2012-02-08 08:26:30 51°12.11 2°48.128 2.9 25 -1.9 103940 36
2012-02-08 08:26:36 51°12.098 2°48.097 2.6 78 -1.9 103940 36
2012-02-08 08:26:41 51°12.087 2°48.072 3.9 24 -2 103940 37
2012-02-08 08:26:45 51°12.079 2°48.051 2 80 -2 103940 37
2012-02-08 08:26:51 51°12.065 2°48.02 2.6 25 -2 103940 36
2012-02-08 08:26:56 51°12.057 2°47.993 2.4 79 -2 103940 36
2012-02-08 08:27:01 51°12.046 2°47.968 4 18 -2 103930 34
2012-02-08 08:27:05 51°12.038 2°47.947 2.3 71 -2 103930 34
2012-02-08 08:27:11 51°12.027 2°47.915 2.9 27 -2 103940 37
2012-02-08 08:27:16 51°12.017 2°47.889 3.4 77 -2 103940 37
2012-02-08 08:27:21 51°12.007 2°47.863 3.5 22 -2 103930 36
2012-02-08 08:27:25 51°12 2°47.84 3.7 71 -2 103930 36
2012-02-08 08:27:31 51°11.989 2°47.81 3.1 19 -1.9 103940 36
2012-02-08 08:27:36 51°11.98 2°47.784 3.5 75 -1.9 103940 36
2012-02-08 08:27:41 51°11.971 2°47.757 2.5 26 -1.9 103930 37
2012-02-08 08:27:45 51°11.964 2°47.735 3.6 74 -1.9 103930 37
2012-02-08 08:27:51 51°11.952 2°47.704 2.4 23 -1.9 103940 35
2012-02-08 08:27:56 51°11.942 2°47.679 3.8 78 -1.9 103940 35
2012-02-08 08:28:01 51°11.932 2°47.652 1.3 20 -1.9 103940 37
2012-02-08 08:28:05 51°11.925 2°47.63 2.7 76 -1.9 103940 37
2012-02-08 08:28:10 51°11.915 2°47.604 3.3 26 -2 103940 35
2012-02-08 08:28:16 51°11.904 2°47.572 1.4 79 -2 103940 35
2012-02-08 08:28:21 51°11.895 2°47.546 2 25 -2 103930 35
2012-02-08 08:28:25 51°11.886 2°47.526 1.5 72 -2 103930 35
2012-02-08 08:28:31 51°11.877 2°47.493 2 18 -2 103940 36
2012-02-08 08:28:36 51°11.868 2°47.466 2.8 44 -2 103940 36
2012-02-08 08:28:41 51°11.861 2°47.439 3.2 42 -2 103940 37
2012-02-08 08:28:45 51°11.855 2°47.417 2.8 41 -2 103940 37
2012-02-08 08:28:51 51°11.847 2°47.383 3.1 41 -2 103940 37
2012-02-08 08:28:56 51°11.841 2°47.355 2.7 44 -2 103940 37
2012-02-08 08:29:01 51°11.834 2°47.328 2.9 37 -2 103940 36
2012-02-08 08:29:05 51°11.83 2°47.305 3.4 73 -2 103940 36
2012-02-08 08:29:11 51°11.821 2°47.272 2.6 43 -2 103930 34
2012-02-08 08:29:16 51°11.815 2°47.243 2.3 38 -2 103930 34
2012-02-08 08:29:21 51°11.809 2°47.215 2.5 21 -2 103940 36
2012-02-08 08:29:25 51°11.803 2°47.193 1.5 75 -2 103940 36
2012-02-08 08:29:31 51°11.796 2°47.16 1.9 42 -2 103940 35
2012-02-08 08:29:36 51°11.789 2°47.133 1.6 44 -2 103940 35
2012-02-08 08:29:41 51°11.782 2°47.105 2.9 24 -2 103940 36
2012-02-08 08:29:45 51°11.776 2°47.083 2.7 74 -2 103940 36
2012-02-08 08:29:51 51°11.768 2°47.05 2.3 18 -2 103940 36
2012-02-08 08:29:56 51°11.76 2°47.023 2.7 78 -2 103940 36
2012-02-08 08:30:01 51°11.753 2°46.995 2.5 25 -2 103940 36
2012-02-08 08:30:05 51°11.745 2°46.974 1.7 79 -2 103940 36
2012-02-08 08:30:11 51°11.738 2°46.94 2.8 18 -2 103940 36
2012-02-08 08:30:16 51°11.729 2°46.913 2.9 78 -2 103940 36
2012-02-08 08:30:21 51°11.725 2°46.885 3.4 25 -2 103940 36
2012-02-08 08:30:25 51°11.721 2°46.862 3.9 44 -2 103940 36
2012-02-08 08:30:31 51°11.715 2°46.827 3.3 26 -2 103940 37
2012-02-08 08:30:36 51°11.709 2°46.799 3.1 38 -2 103940 37
2012-02-08 08:30:41 51°11.705 2°46.769 3.4 33 -2 103940 38
2012-02-08 08:30:45 51°11.702 2°46.745 3.3 31 -2 103940 38
2012-02-08 08:30:50 51°11.697 2°46.716 4.2 23 -2 103940 36
2012-02-08 08:30:55 51°11.695 2°46.686 4.5 32 -2 103940 36
2012-02-08 08:31:01 51°11.69 2°46.651 5.8 31 -2 103940 37
2012-02-08 08:31:05 51°11.688 2°46.626 6 35 -2 103940 37
2012-02-08 08:31:11 51°11.684 2°46.59 5.9 33 -2 103940 37
2012-02-08 08:31:16 51°11.682 2°46.559 4.8 37 -2 103940 37
2012-02-08 08:31:21 51°11.679 2°46.529 6.1 33 -2 103940 38
2012-02-08 08:31:26 51°11.677 2°46.498 5.1 37 -2 103940 38
2012-02-08 08:31:31 51°11.674 2°46.468 6.3 30 -2 103940 36
2012-02-08 08:31:36 51°11.672 2°46.437 4.6 41 -2 103940 36
2012-02-08 08:31:41 51°11.669 2°46.407 4.7 32 -2 103940 36
2012-02-08 08:31:45 51°11.666 2°46.382 5 38 -2 103940 36
2012-02-08 08:31:51 51°11.664 2°46.345 4.7 37 -2.1 103940 36
2012-02-08 08:31:56 51°11.661 2°46.314 5.1 33 -2.1 103940 36
2012-02-08 08:32:01 51°11.659 2°46.284 5.6 37 -2.1 103940 37
2012-02-08 08:32:05 51°11.656 2°46.26 5.6 30 -2.1 103940 37
2012-02-08 08:32:10 51°11.655 2°46.228 4.2 34 -2.1 103940 36
2012-02-08 08:32:16 51°11.651 2°46.191 5.3 30 -2.1 103940 36
2012-02-08 08:32:21 51°11.65 2°46.16 5.1 35 -2.1 103940 34
2012-02-08 08:32:25 51°11.647 2°46.135 5.6 35 -2.1 103940 34
2012-02-08 08:32:30 51°11.645 2°46.104 3.5 36 -2.2 103930 37
2012-02-08 08:32:36 51°11.643 2°46.067 5.3 42 -2.2 103930 37
2012-02-08 08:32:41 51°11.64 2°46.037 2.2 41 -2.2 103940 37
2012-02-08 08:32:45 51°11.639 2°46.012 4.5 37 -2.2 103940 37
2012-02-08 08:32:51 51°11.636 2°45.975 4.3 38 -2.2 103940 37
2012-02-08 08:32:56 51°11.635 2°45.944 4.4 42 -2.2 103940 37
2012-02-08 08:33:01 51°11.633 2°45.913 4 23 -2.2 103940 37
2012-02-08 08:33:05 51°11.631 2°45.889 4.8 29 -2.2 103940 37
2012-02-08 08:33:11 51°11.629 2°45.852 2.6 37 -2.2 103940 36
2012-02-08 08:33:16 51°11.627 2°45.821 5.1 37 -2.2 103940 36
2012-02-08 08:33:21 51°11.626 2°45.791 4.7 40 -2.2 103930 36
2012-02-08 08:33:26 51°11.624 2°45.76 5 39 -2.2 103930 36
2012-02-08 08:33:30 51°11.623 2°45.736 4.3 36 -2.2 103930 36
2012-02-08 08:33:36 51°11.621 2°45.699 4.8 37 -2.2 103930 36
2012-02-08 08:33:41 51°11.619 2°45.668 4.7 35 -2.2 103940 36
2012-02-08 08:33:46 51°11.617 2°45.638 4.1 33 -2.2 103940 36
2012-02-08 08:33:51 51°11.615 2°45.608 4 39 -2.2 103940 38
2012-02-08 08:33:56 51°11.612 2°45.578 3.8 38 -2.2 103940 38
2012-02-08 08:34:01 51°11.61 2°45.547 3.6 40 -2.2 103930 36
2012-02-08 08:34:05 51°11.607 2°45.524 4.7 42 -2.2 103930 36
2012-02-08 08:34:11 51°11.603 2°45.488 4.4 38 -2.3 103930 36
2012-02-08 08:34:16 51°11.599 2°45.457 4.5 41 -2.3 103930 36
2012-02-08 08:34:21 51°11.595 2°45.427 3.1 44 -2.2 103930 37
2012-02-08 08:34:25 51°11.592 2°45.403 3.8 79 -2.2 103930 37
2012-02-08 08:34:31 51°11.586 2°45.368 3.3 17 -2.3 103940 36
2012-02-08 08:34:36 51°11.582 2°45.338 4 43 -2.3 103940 36
2012-02-08 08:34:41 51°11.578 2°45.308 4.5 42 -2.3 103930 37
2012-02-08 08:34:45 51°11.576 2°45.283 4.3 73 -2.3 103930 37
2012-02-08 08:34:50 51°11.57 2°45.254 4.6 37 -2.3 103940 36
2012-02-08 08:34:56 51°11.568 2°45.217 3.7 76 -2.3 103940 36
2012-02-08 08:35:01 51°11.564 2°45.188 3.8 26 -2.2 103930 35
2012-02-08 08:35:05 51°11.562 2°45.164 4.6 43 -2.2 103930 35
2012-02-08 08:35:11 51°11.559 2°45.128 4.9 43 -2.3 103940 38
2012-02-08 08:35:16 51°11.556 2°45.098 5 37 -2.3 103940 38
2012-02-08 08:35:21 51°11.554 2°45.069 5.4 40 -2.3 103930 36
2012-02-08 08:35:25 51°11.553 2°45.044 6 39 -2.3 103930 36
2012-02-08 08:35:31 51°11.55 2°45.009 5.2 40 -2.3 103930 37
2012-02-08 08:35:36 51°11.548 2°44.98 5.8 73 -2.3 103930 37
2012-02-08 08:35:41 51°11.548 2°44.95 5.4 19 -2.3 103930 36
2012-02-08 08:35:45 51°11.545 2°44.926 4.1 39 -2.3 103930 36
2012-02-08 08:35:50 51°11.542 2°44.897 4 19 -2.3 103940 37
2012-02-08 08:35:56 51°11.539 2°44.862 2.5 41 -2.3 103940 37
2012-02-08 08:36:01 51°11.538 2°44.833 3.4 42 -2.3 103940 38
2012-02-08 08:36:05 51°11.535 2°44.81 4.7 43 -2.3 103940 38
2012-02-08 08:36:11 51°11.532 2°44.775 4.1 19 -2.3 103930 38
2012-02-08 08:36:16 51°11.529 2°44.745 4.7 28 -2.3 103930 38
2012-02-08 08:36:21 51°11.527 2°44.716 5.1 43 -2.3 103930 38
2012-02-08 08:36:25 51°11.525 2°44.693 4.9 44 -2.3 103930 38
2012-02-08 08:36:31 51°11.522 2°44.658 4.6 40 -2.2 103920 37
2012-02-08 08:36:36 51°11.521 2°44.628 4.3 74 -2.2 103920 37
2012-02-08 08:36:41 51°11.518 2°44.598 4.1 34 -2.2 103920 38
2012-02-08 08:36:45 51°11.518 2°44.575 4.6 34 -2.2 103920 38
2012-02-08 08:36:51 51°11.514 2°44.539 4.7 35 -2.2 103930 38
2012-02-08 08:36:56 51°11.513 2°44.51 4.8 78 -2.2 103930 38
2012-02-08 08:37:01 51°11.51 2°44.481 3.9 39 -2.2 103930 37
2012-02-08 08:37:05 51°11.509 2°44.457 4.2 27 -2.2 103930 37
2012-02-08 08:37:10 51°11.507 2°44.428 3.8 31 -2.2 103930 37
2012-02-08 08:37:16 51°11.505 2°44.393 4.5 30 -2.2 103930 37
2012-02-08 08:37:21 51°11.502 2°44.362 5.5 36 -2.2 103930 38
2012-02-08 08:37:25 51°11.501 2°44.339 5.9 38 -2.2 103930 38
2012-02-08 08:37:30 51°11.498 2°44.31 4.8 40 -2.2 103930 38
2012-02-08 08:37:35 51°11.497 2°44.279 5.1 36 -2.2 103930 38
2012-02-08 08:37:41 51°11.494 2°44.244 4.6 33 -2.2 103930 36
2012-02-08 08:37:45 51°11.493 2°44.22 6.2 34 -2.2 103930 36
2012-02-08 08:37:51 51°11.491 2°44.185 4.9 35 -2.1 103930 37
2012-02-08 08:37:56 51°11.491 2°44.156 5 31 -2.1 103930 37
2012-02-08 08:38:01 51°11.488 2°44.128 5.4 31 -2.1 103930 39
2012-02-08 08:38:05 51°11.49 2°44.104 5 30 -2.1 103930 39
2012-02-08 08:38:11 51°11.487 2°44.07 4.6 28 -2.1 103930 38
2012-02-08 08:38:16 51°11.486 2°44.041 4.5 39 -2.1 103930 38
2012-02-08 08:38:21 51°11.484 2°44.012 4.9 34 -2.1 103930 37
2012-02-08 08:38:26 51°11.484 2°43.983 3.7 26 -2.1 103930 37
2012-02-08 08:38:31 51°11.483 2°43.954 4.9 31 -2.1 103920 37
2012-02-08 08:38:36 51°11.481 2°43.925 3.8 24 -2.1 103920 37
2012-02-08 08:38:41 51°11.481 2°43.896 4.9 32 -2.2 103920 38
2012-02-08 08:38:45 51°11.479 2°43.873 3.6 27 -2.2 103920 38
2012-02-08 08:38:51 51°11.48 2°43.838 4 37 -2.2 103930 38
2012-02-08 08:38:56 51°11.478 2°43.809 5 33 -2.2 103930 38
2012-02-08 08:39:01 51°11.477 2°43.78 4.7 37 -2.1 103920 36
2012-02-08 08:39:05 51°11.476 2°43.757 6.6 31 -2.1 103920 36
2012-02-08 08:39:11 51°11.476 2°43.722 4.7 32 -2.1 103930 37
2012-02-08 08:39:16 51°11.475 2°43.694 5 31 -2.1 103930 37
2012-02-08 08:39:21 51°11.474 2°43.665 5.6 28 -2.1 103930 38
2012-02-08 08:39:26 51°11.473 2°43.637 5.4 25 -2.1 103930 38
2012-02-08 08:39:30 51°11.472 2°43.615 7.5 35 -2.1 103920 38
2012-02-08 08:39:36 51°11.47 2°43.58 5.5 37 -2.1 103920 38
2012-02-08 08:39:41 51°11.471 2°43.551 6.1 44 -2.1 103930 38
2012-02-08 08:39:45 51°11.469 2°43.529 6.6 41 -2.1 103930 38
2012-02-08 08:39:51 51°11.469 2°43.495 5.9 35 -2.1 103920 37
2012-02-08 08:39:56 51°11.466 2°43.467 5.9 35 -2.1 103920 37
2012-02-08 08:40:01 51°11.466 2°43.438 5.2 39 -2.1 103920 38
2012-02-08 08:40:05 51°11.465 2°43.415 5.1 40 -2.1 103920 38
2012-02-08 08:40:11 51°11.463 2°43.382 4.6 31 -2.1 103930 38
2012-02-08 08:40:16 51°11.463 2°43.353 5.4 38 -2.1 103930 38
2012-02-08 08:40:21 51°11.461 2°43.325 5.1 26 -2.1 103930 35
2012-02-08 08:40:25 51°11.461 2°43.302 4.8 31 -2.1 103930 35
2012-02-08 08:40:30 51°11.46 2°43.274 7.3 34 -2.1 103930 38
2012-02-08 08:40:36 51°11.459 2°43.24 5.2 42 -2.1 103930 38
2012-02-08 08:40:41 51°11.458 2°43.211 6.4 40 -2.2 103930 38
2012-02-08 08:40:46 51°11.456 2°43.184 5.6 36 -2.2 103930 38
2012-02-08 08:40:51 51°11.456 2°43.155 4.3 41 -2.2 103920 38
2012-02-08 08:40:56 51°11.455 2°43.126 3.9 28 -2.2 103920 38
2012-02-08 08:41:01 51°11.452 2°43.098 5.1 30 -2.1 103930 38
2012-02-08 08:41:05 51°11.452 2°43.075 4.1 33 -2.1 103930 38
2012-02-08 08:41:11 51°11.45 2°43.04 5 34 -2.1 103920 38
2012-02-08 08:41:16 51°11.449 2°43.011 5.3 43 -2.1 103920 38
2012-02-08 08:41:21 51°11.447 2°42.983 4.5 33 -2.1 103930 39
2012-02-08 08:41:25 51°11.446 2°42.96 3.8 77 -2.1 103930 39
2012-02-08 08:41:31 51°11.444 2°42.926 4.2 39 -2 103920 38
2012-02-08 08:41:36 51°11.442 2°42.897 3.2 40 -2 103920 38
2012-02-08 08:41:41 51°11.439 2°42.869 3.7 42 -2 103920 39
2012-02-08 08:41:45 51°11.439 2°42.846 2.9 79 -2 103920 39
2012-02-08 08:41:50 51°11.435 2°42.819 4.7 19 -2 103930 37
2012-02-08 08:41:56 51°11.431 2°42.785 4.5 43 -2 103930 37
2012-02-08 08:42:01 51°11.428 2°42.756 4.7 20 -2 103930 37
2012-02-08 08:42:05 51°11.425 2°42.734 4.1 45 -2 103930 37
2012-02-08 08:42:11 51°11.422 2°42.7 4.5 23 -2 103930 39
2012-02-08 08:42:16 51°11.417 2°42.673 3.8 73 -2 103930 39
2012-02-08 08:42:21 51°11.414 2°42.645 3.8 21 -2 103920 38
2012-02-08 08:42:25 51°11.409 2°42.624 2.8 74 -2 103920 38
2012-02-08 08:42:31 51°11.403 2°42.591 2.6 20 -2 103930 37
2012-02-08 08:42:36 51°11.397 2°42.564 2.9 73 -2 103930 37
2012-02-08 08:42:41 51°11.391 2°42.538 1.4 21 -2 103930 39
2012-02-08 08:42:45 51°11.385 2°42.516 0.4 76 -2 103930 39
2012-02-08 08:42:51 51°11.377 2°42.484 1.8 20 -2 103920 38
2012-02-08 08:42:56 51°11.37 2°42.458 5.5 78 -2 103920 38
2012-02-08 08:43:01 51°11.363 2°42.431 3.3 20 -2 103920 38
2012-02-08 08:43:05 51°11.355 2°42.411 3.2 77 -2 103920 38
2012-02-08 08:43:11 51°11.348 2°42.378 4 17 -1.9 103930 38
2012-02-08 08:43:16 51°11.339 2°42.353 2.9 79 -1.9 103930 38
2012-02-08 08:43:21 51°11.331 2°42.327 3.9 25 -2 103930 37
2012-02-08 08:43:25 51°11.326 2°42.305 2.7 79 -2 103930 37
2012-02-08 08:43:31 51°11.317 2°42.274 1.7 21 -1.9 103930 37
2012-02-08 08:43:36 51°11.31 2°42.248 1.8 74 -1.9 103930 37
2012-02-08 08:43:41 51°11.303 2°42.222 2.5 23 -1.9 103930 39
2012-02-08 08:43:45 51°11.298 2°42.201 1 42 -1.9 103930 39
2012-02-08 08:43:51 51°11.289 2°42.168 2.1 21 -1.9 103930 39
2012-02-08 08:43:56 51°11.283 2°42.141 1.3 74 -1.9 103930 39
2012-02-08 08:44:01 51°11.277 2°42.115 2.4 25 -1.9 103930 38
2012-02-08 08:44:05 51°11.271 2°42.093 2.7 45 -1.9 103930 38
2012-02-08 08:44:11 51°11.263 2°42.06 2.3 38 -1.8 103930 39
2012-02-08 08:44:16 51°11.257 2°42.033 3.5 72 -1.8 103930 39
2012-02-08 08:44:21 51°11.251 2°42.005 4.4 25 -1.7 103920 38
2012-02-08 08:44:25 51°11.245 2°41.984 4.1 78 -1.7 103920 38
2012-02-08 08:44:30 51°11.238 2°41.956 3.5 25 -1.7 103930 38
2012-02-08 08:44:36 51°11.23 2°41.922 4.1 72 -1.7 103930 38
2012-02-08 08:44:41 51°11.221 2°41.897 3.5 23 -1.7 103930 38
2012-02-08 08:44:45 51°11.215 2°41.875 3.1 71 -1.7 103930 38
2012-02-08 08:44:51 51°11.205 2°41.844 2.4 24 -1.7 103930 37
2012-02-08 08:44:56 51°11.196 2°41.819 1.3 75 -1.7 103930 37
2012-02-08 08:45:01 51°11.186 2°41.793 3.4 25 -1.7 103920 38
2012-02-08 08:45:06 51°11.176 2°41.768 5.1 75 -1.7 103920 38
2012-02-08 08:45:11 51°11.165 2°41.743 3.8 25 -1.7 103920 37
2012-02-08 08:45:16 51°11.155 2°41.719 4.9 77 -1.7 103920 37
2012-02-08 08:45:21 51°11.145 2°41.695 4.2 23 -1.7 103930 37
2012-02-08 08:45:25 51°11.136 2°41.675 4.6 71 -1.7 103930 37
2012-02-08 08:45:31 51°11.124 2°41.645 5.2 26 -1.7 103920 37
2012-02-08 08:45:36 51°11.113 2°41.621 5.1 74 -1.7 103920 37
2012-02-08 08:45:41 51°11.102 2°41.597 4.7 19 -1.7 103910 36
2012-02-08 08:45:45 51°11.095 2°41.578 5.5 78 -1.7 103910 36
2012-02-08 08:45:51 51°11.081 2°41.549 4.4 18 -1.7 103920 38
2012-02-08 08:45:56 51°11.071 2°41.525 5.1 71 -1.7 103920 38
2012-02-08 08:46:01 51°11.058 2°41.502 4.6 20 -1.8 103910 38
2012-02-08 08:46:05 51°11.052 2°41.482 4 75 -1.8 103910 38
2012-02-08 08:46:10 51°11.04 2°41.459 5 23 -1.8 103920 36
2012-02-08 08:46:16 51°11.026 2°41.429 4.2 75 -1.8 103920 36
2012-02-08 08:46:21 51°11.014 2°41.408 5.7 23 -1.8 103920 36
2012-02-08 08:46:25 51°11.006 2°41.389 5.1 73 -1.8 103920 36
2012-02-08 08:46:31 51°10.992 2°41.361 3.5 21 -1.9 103920 36
2012-02-08 08:46:36 51°10.981 2°41.335 2.8 72 -1.9 103920 36
2012-02-08 08:46:41 51°10.968 2°41.314 4.6 25 -1.9 103920 36
2012-02-08 08:46:45 51°10.961 2°41.295 3.9 77 -1.9 103920 36
2012-02-08 08:46:51 51°10.947 2°41.266 2.9 22 -1.9 103920 38
2012-02-08 08:46:56 51°10.938 2°41.241 4 79 -1.9 103920 38
2012-02-08 08:47:01 51°10.926 2°41.216 2.6 24 -1.9 103920 38
2012-02-08 08:47:05 51°10.919 2°41.196 3.6 73 -1.9 103920 38
2012-02-08 08:47:11 51°10.906 2°41.167 4.1 23 -1.9 103920 35
2012-02-08 08:47:16 51°10.895 2°41.142 4.6 78 -1.9 103920 35
2012-02-08 08:47:21 51°10.885 2°41.116 4.1 19 -1.9 103910 38
2012-02-08 08:47:25 51°10.877 2°41.095 4.7 75 -1.9 103910 38
2012-02-08 08:47:31 51°10.864 2°41.066 3.2 25 -1.8 103910 38
2012-02-08 08:47:36 51°10.854 2°41.042 4 -999 -1.8 103910 38
2012-02-08 08:47:41 51°10.843 2°41.019 3.5 21 -1.8 103920 38
2012-02-08 08:47:46 51°10.832 2°40.994 2.4 71 -1.8 103920 38
2012-02-08 08:47:51 51°10.821 2°40.97 2.7 264 -1.9 103920 36
2012-02-08 08:47:56 51°10.81 2°40.947 4.8 74 -1.9 103920 36
2012-02-08 08:48:01 51°10.799 2°40.922 5 23 -1.9 103910 36
2012-02-08 08:48:05 51°10.79 2°40.902 4.1 74 -1.9 103910 36
2012-02-08 08:48:11 51°10.779 2°40.872 5.5 38 -1.9 103910 38
2012-02-08 08:48:16 51°10.768 2°40.847 5.4 76 -1.9 103910 38
2012-02-08 08:48:21 51°10.759 2°40.821 5.7 19 -1.8 103910 36
2012-02-08 08:48:25 51°10.749 2°40.803 4 74 -1.8 103910 36
2012-02-08 08:48:31 51°10.737 2°40.773 4.6 19 -1.9 103920 38
2012-02-08 08:48:36 51°10.727 2°40.748 3.2 73 -1.9 103920 38
2012-02-08 08:48:41 51°10.716 2°40.723 5.6 20 -1.9 103920 38
2012-02-08 08:48:45 51°10.708 2°40.703 6.4 79 -1.9 103920 38
2012-02-08 08:48:50 51°10.697 2°40.678 5.4 25 -1.9 103920 37
2012-02-08 08:48:55 51°10.688 2°40.652 5.6 77 -1.9 103920 37
2012-02-08 08:49:01 51°10.674 2°40.623 4 21 -1.9 103910 38
2012-02-08 08:49:06 51°10.664 2°40.596 5.8 76 -1.9 103910 38
2012-02-08 08:49:11 51°10.653 2°40.572 4.8 22 -1.9 103910 36
2012-02-08 08:49:16 51°10.642 2°40.546 4.7 75 -1.9 103910 36
2012-02-08 08:49:21 51°10.634 2°40.519 4 24 -1.9 103920 36
2012-02-08 08:49:25 51°10.625 2°40.5 4.8 77 -1.9 103920 36
2012-02-08 08:49:31 51°10.613 2°40.468 4.5 25 -1.9 103920 37
2012-02-08 08:49:36 51°10.603 2°40.443 4 78 -1.9 103920 37
2012-02-08 08:49:41 51°10.593 2°40.417 3.9 19 -2 103920 38
2012-02-08 08:49:46 51°10.583 2°40.392 3.1 72 -2 103920 38
2012-02-08 08:49:51 51°10.573 2°40.367 2.9 19 -2 103920 37
2012-02-08 08:49:56 51°10.562 2°40.34 3.5 74 -2 103920 37
2012-02-08 08:50:01 51°10.552 2°40.313 3.9 18 -2 103920 37
2012-02-08 08:50:05 51°10.545 2°40.293 4.9 78 -2 103920 37
2012-02-08 08:50:11 51°10.533 2°40.261 2.9 20 -2 103920 36
2012-02-08 08:50:16 51°10.522 2°40.237 4 71 -2 103920 36
2012-02-08 08:50:21 51°10.511 2°40.212 3.3 19 -2 103920 35
2012-02-08 08:50:25 51°10.504 2°40.191 3.4 78 -2 103920 35
2012-02-08 08:50:30 51°10.493 2°40.166 2.8 25 -1.9 103910 36
2012-02-08 08:50:36 51°10.482 2°40.134 5 78 -1.9 103910 36
2012-02-08 08:50:41 51°10.472 2°40.109 2.7 17 -1.9 103920 36
2012-02-08 08:50:45 51°10.465 2°40.087 3.3 78 -1.9 103920 36
2012-02-08 08:50:51 51°10.454 2°40.055 4.1 32 -1.9 103920 36
2012-02-08 08:50:56 51°10.446 2°40.028 5 78 -1.9 103920 36
2012-02-08 08:51:01 51°10.44 2°40 4.9 23 -1.8 103910 35
2012-02-08 08:51:05 51°10.433 2°39.978 5.3 74 -1.8 103910 35
2012-02-08 08:51:11 51°10.424 2°39.945 5.4 23 -1.8 103920 36
2012-02-08 08:51:16 51°10.418 2°39.918 5.6 73 -1.8 103920 36
2012-02-08 08:51:21 51°10.411 2°39.89 4.7 19 -1.8 103920 37
2012-02-08 08:51:25 51°10.406 2°39.868 5.4 76 -1.8 103920 37
2012-02-08 08:51:30 51°10.4 2°39.839 6.1 25 -1.8 103920 36
2012-02-08 08:51:36 51°10.392 2°39.807 6.8 -999 -1.8 103920 36
2012-02-08 08:51:41 51°10.385 2°39.779 4.4 22 -1.9 103920 37
2012-02-08 08:51:45 51°10.38 2°39.756 4.3 79 -1.9 103920 37
2012-02-08 08:51:51 51°10.372 2°39.722 4.3 24 -1.9 103920 36
2012-02-08 08:51:56 51°10.366 2°39.693 5.5 78 -1.9 103920 36
2012-02-08 08:52:01 51°10.359 2°39.665 3.9 20 -1.9 103920 36
2012-02-08 08:52:06 51°10.353 2°39.637 5 72 -1.9 103920 36
2012-02-08 08:52:11 51°10.345 2°39.609 5.6 26 -1.9 103920 37
2012-02-08 08:52:16 51°10.34 2°39.579 5.8 74 -1.9 103920 37
2012-02-08 08:52:21 51°10.332 2°39.552 3.3 17 -1.9 103920 37
2012-02-08 08:52:25 51°10.327 2°39.529 3.6 73 -1.9 103920 37
2012-02-08 08:52:31 51°10.318 2°39.495 4.9 21 -1.9 103920 37
2012-02-08 08:52:36 51°10.312 2°39.467 3.2 79 -1.9 103920 37
2012-02-08 08:52:41 51°10.304 2°39.438 3.5 20 -2 103920 37
2012-02-08 08:52:45 51°10.299 2°39.416 4.5 78 -2 103920 37
2012-02-08 08:52:51 51°10.29 2°39.384 4.3 20 -2 103920 37
2012-02-08 08:52:56 51°10.284 2°39.355 4.3 78 -2 103920 37
2012-02-08 08:53:01 51°10.277 2°39.328 5.4 23 -2 103920 35
2012-02-08 08:53:05 51°10.272 2°39.305 3.1 73 -2 103920 35
2012-02-08 08:53:10 51°10.264 2°39.278 4.5 25 -2 103920 35
2012-02-08 08:53:16 51°10.256 2°39.244 2.7 77 -2 103920 35
2012-02-08 08:53:21 51°10.248 2°39.216 2.2 24 -2 103930 37
2012-02-08 08:53:25 51°10.242 2°39.194 2 77 -2 103930 37
2012-02-08 08:53:31 51°10.234 2°39.159 3.9 20 -1.9 103920 38
2012-02-08 08:53:36 51°10.227 2°39.132 3.8 -999 -1.9 103920 38
2012-02-08 08:53:41 51°10.219 2°39.105 3.8 20 -1.9 103920 37
2012-02-08 08:53:45 51°10.215 2°39.082 3.5 74 -1.9 103920 37
2012-02-08 08:53:51 51°10.204 2°39.048 4.9 25 -1.9 103920 36
2012-02-08 08:53:56 51°10.199 2°39.02 3.8 76 -1.9 103920 36
2012-02-08 08:54:01 51°10.19 2°38.993 3.8 18 -1.8 103920 37
2012-02-08 08:54:05 51°10.185 2°38.97 3.9 78 -1.8 103920 37
2012-02-08 08:54:11 51°10.175 2°38.937 2.5 25 -1.9 103920 36
2012-02-08 08:54:16 51°10.169 2°38.909 3.7 74 -1.9 103920 36
2012-02-08 08:54:21 51°10.161 2°38.883 3.4 26 -1.9 103920 37
2012-02-08 08:54:26 51°10.154 2°38.855 3.1 74 -1.9 103920 37
2012-02-08 08:54:31 51°10.146 2°38.828 1.8 25 -1.9 103920 38
2012-02-08 08:54:36 51°10.139 2°38.799 4 74 -1.9 103920 38
2012-02-08 08:54:41 51°10.131 2°38.772 3 18 -1.7 103920 37
2012-02-08 08:54:45 51°10.125 2°38.751 3.4 80 -1.7 103920 37
2012-02-08 08:54:51 51°10.117 2°38.717 4.3 22 -1.6 103920 38
2012-02-08 08:54:56 51°10.11 2°38.688 3.6 45 -1.6 103920 38
2012-02-08 08:55:01 51°10.103 2°38.66 3.1 24 -1.5 103930 38
2012-02-08 08:55:05 51°10.096 2°38.638 3.4 71 -1.5 103930 38
2012-02-08 08:55:11 51°10.087 2°38.604 3.1 18 -1.5 103920 39
2012-02-08 08:55:16 51°10.08 2°38.576 3.4 80 -1.5 103920 39
2012-02-08 08:55:21 51°10.072 2°38.549 4.6 20 -1.4 103920 37
2012-02-08 08:55:25 51°10.066 2°38.526 4.2 79 -1.4 103920 37
2012-02-08 08:55:30 51°10.059 2°38.498 4.9 25 -1.4 103920 37
2012-02-08 08:55:36 51°10.05 2°38.464 3.3 74 -1.4 103920 37
2012-02-08 08:55:41 51°10.044 2°38.434 4.8 26 -1.4 103930 38
2012-02-08 08:55:46 51°10.037 2°38.406 4.5 74 -1.4 103930 38
2012-02-08 08:55:50 51°10.03 2°38.383 4.6 20 -1.4 103920 37
2012-02-08 08:55:55 51°10.024 2°38.354 4 78 -1.4 103920 37
2012-02-08 08:56:01 51°10.013 2°38.321 4.7 43 -1.4 103920 37